Torna al catalogo

STARLINK-36711

AttivoComunicazioniVLEO
NORAD 68040·PAYLOAD·🇺🇸 United States

Lanciato Mar 2, 2026 da Vandenberg Space Force Base

Loading…

Prossimi Passaggi (prossime 24 ore)

TLE

AggiornatoSource: CelesTrak SupGP

Epoca: Sep 15, 2026, 03:38 UTC

1 68040C 26041A   26258.15187500 -.00051875  00000+0 -15325-2 0  2584
2 68040  53.1577 244.7286 0001210  93.1110  63.6426 15.34418958    16

Traccia STARLINK-36711 in tempo reale con AllMySat

Download on the App Store